Flag for U.S.A. Weather past 2 weeks in Scranton, Pennsylvania, U.S.A.

Now
66 °F

Mostly cloudy.


Feels Like: 66 °F
Forecast: 61 / 72 °F
Wind: 3 mph from North

Location: Barre - Scranton - Wilkes-Barre / Scranton International Airport

Current Time: Aug 23, 2014 at 12:21:35 AM

Latest Report: Aug 22, 2014 at 11:54 PM


Visibility: 10 mi

Pressure: 30.03 "Hg

Humidity: 81%

Dew point: 60 °F

Location of ScrantonLocation

Historic Weather in Scranton — Graph

°F

Scranton temperature yesterday

Maximum temperature yesterday: 74 °F (at 11:54 AM)
Minimum temperature yesterday: 67 °F (at 4:54 AM)
Average temperature yesterday: 70 °F

Past Weeks' High & Low Weather Summary

 TemperatureHumidityPressure
High87 °F (Aug 10, 4:54 PM)94% (Aug 12, 7:57 AM)30.17 "Hg (Aug 12, 7:57 AM)
Low50 °F (Aug 16, 4:54 AM)30% (Aug 9, 4:54 PM)29.70 "Hg (Aug 13, 1:54 PM)
Average69 °F66%29.97 "Hg
* Reported Aug 7 10:54 PM — Aug 22 10:54 PM, Scranton, Weather by CustomWeather, © 2014

Note: Actual official high and low records may vary slightly from our data, if they occured in-between our weather recording intervals... More about our weather records

Advertising

Scranton weather history for previous 24 hours

 ConditionsComfort  
Time TempWeatherWind HumidityBarometerVisibility
10:54 PM
Aug 22
68 °FLight rain. Overcast.No wind84%30.02 "Hg6 mi
9:54 PM69 °FOvercast.8 mph79%30.01 "Hg10 mi
8:54 PM70 °FMostly cloudy.10 mph79%30.01 "Hg10 mi
7:54 PM70 °FMostly cloudy.8 mph81%29.99 "Hg10 mi
6:54 PM72 °FOvercast.5 mph76%29.99 "Hg10 mi
5:54 PM73 °FMostly cloudy.5 mph76%29.98 "Hg10 mi
4:54 PM73 °FPassing clouds.3 mph79%29.98 "Hg10 mi
3:54 PM72 °FPartly sunny.6 mph84%29.97 "Hg10 mi
3:02 PM70 °FRain. Fog.5 mph88%30.01 "Hg3 mi
2:52 PM70 °FHeavy rain. Cloudy.6 mph84%29.99 "Hg2 mi
1:54 PM73 °FOvercast.6 mph76%29.99 "Hg10 mi
12:54 PM74 °FPartly sunny.6 mph74%30.00 "Hg10 mi
11:54 AM74 °FOvercast.3 mph71%30.01 "Hg10 mi
10:54 AM72 °FOvercast.3 mph73%30.02 "Hg10 mi
9:54 AM69 °FOvercast.3 mph84%30.02 "Hg10 mi
8:54 AM68 °FOvercast.5 mph84%30.01 "Hg10 mi
7:54 AM68 °FBroken clouds.3 mph84%29.99 "Hg10 mi
6:54 AM67 °FOvercast.3 mph87%29.98 "Hg10 mi
5:54 AM67 °FOvercast.5 mph87%29.97 "Hg10 mi
4:54 AM67 °FPartly cloudy.5 mph90%29.97 "Hg10 mi
3:54 AM69 °FMostly cloudy.No wind87%29.97 "Hg9 mi
2:54 AM69 °FOvercast.5 mph87%29.97 "Hg10 mi
1:57 AM70 °FLight rain. Mostly cloudy.No wind88%30.00 "Hg7 mi
1:03 AM70 °FHeavy rain. Fog.3 mph83%30.01 "Hg1 mi
12:54 AM70 °FLight rain. Mostly cloudy.No wind81%29.97 "Hg10 mi
Weather by CustomWeather, © 2014

See weather overviewHow to use our weather pages